1483621200.31,8175,7.19,71660.8,-20.69,-23.99,-24.61,0,*56
1483621201.56,8176,7.19,71652.8,-20.67,-24.05,-24.83,0,*55
1483621202.8,8177,7.19,71648.5,-20.67,-24.15,-24.97,0,*50
1483621204.06,8178,7.13,71650.0,-20.67,-24.15,-24.87,0,*5E
1483621205.31,8179,7.19,71654.0,-20.67,-24.31,-25.03,0,*54
1483621206.55,8180,7.19,71654.5,-20.67,-24.05,-24.67,0,*56
1483621207.81,8181,7.19,71662.3,-20.67,-23.85,-24.83,0,*52
1483621209.07,8182,7.19,71654.0,-20.67,-24.15,-24.83,0,*5F
1483621210.32,8183,7.19,71652.0,-20.65,-24.05,-24.97,0,*58
1483621211.58,8184,7.19,71650.3,-20.65,-24.31,-25.13,0,*55
1483621212.82,8185,7.19,71646.8,-20.65,-24.05,-24.97,0,*5E
1483621214.07,8186,7.19,71648.0,-20.67,-24.05,-24.87,0,*5E
1483621215.32,8187,7.19,71648.8,-20.65,-24.35,-25.19,0,*58
1483621216.54,8188,7.19,71640.5,-20.67,-24.47,-25.35,0,*5E
1483621217.76,8189,7.19,71636.0,-20.67,-24.47,-25.13,0,*5B
1483621218.98,8190,7.19,71638.5,-20.67,-24.31,-25.19,0,*58
1483621220.23,8191,7.19,71630.0,-20.67,-24.61,-25.45,0,*55
1483621221.5,8192,7.19,71624.8,-20.67,-24.21,-25.03,0,*50
1483621222.77,8193,7.19,71622.0,-20.65,-24.21,-24.97,0,*5F
1483621224.05,8194,7.19,71618.0,-20.65,-24.47,-25.29,0,*5C
1483621225.28,8195,7.19,71634.8,-20.67,-24.31,-25.13,0,*57
1483621226.53,8196,7.19,71640.8,-20.67,-24.47,-25.29,0,*5C
1483621227.77,8197,7.19,71642.3,-20.67,-24.35,-25.29,0,*58
1483621229.02,8198,7.19,71634.5,-20.65,-24.47,-25.35,0,*5D
1483621230.3,8199,7.19,71632.8,-20.65,-24.47,-25.29,0,*51
1483621231.53,8200,7.19,71634.8,-20.67,-24.61,-25.61,0,*58
1483621232.75,8201,7.19,71642.8,-20.67,-24.61,-25.61,0,*59
1483621233.97,8202,7.19,71644.0,-20.67,-24.35,-25.35,0,*5A
1483621235.2,8203,7.19,71642.8,-20.67,-24.31,-25.13,0,*5B
1483621236.44,8204,7.19,71640.5,-20.67,-24.21,-25.13,0,*5D
1483621237.69,8205,7.19,71640.0,-20.67,-24.21,-25.13,0,*5C
1483621238.93,8206,7.19,71640.5,-20.67,-24.15,-24.97,0,*55
1483621240.15,8207,7.19,71642.5,-20.67,-24.05,-24.97,0,*55
1483621241.43,8208,7.19,71646.3,-20.65,-24.21,-25.13,0,*53
1483621242.65,8209,7.19,71632.5,-20.67,-24.31,-25.13,0,*51
1483621243.93,8210,7.19,71636.8,-20.65,-24.35,-25.29,0,*56
1483621245.18,8211,7.19,71640.0,-20.65,-24.31,-25.19,0,*50
1483621246.44,8212,7.19,71646.8,-20.67,-24.15,-25.03,0,*5C
1483621247.66,8213,7.19,71648.3,-20.67,-24.05,-24.97,0,*50
1483621248.9,8214,7.19,71660.0,-20.67,-24.15,-25.13,0,*5B
1483621250.13,8215,7.19,71644.5,-20.67,-24.35,-25.13,0,*58
1483621251.4,8216,7.19,71646.8,-20.67,-24.21,-25.03,0,*5F
1483621252.64,8217,7.19,71636.5,-20.67,-24.05,-24.87,0,*55
1483621253.88,8218,7.19,71644.8,-20.67,-23.89,-24.67,0,*57
1483621255.12,8219,7.19,71648.0,-20.65,-23.89,-24.61,0,*52
1483621256.34,8220,7.19,71656.8,-20.67,-24.05,-24.97,0,*50
1483621257.62,8221,7.19,71644.0,-20.65,-24.31,-25.03,0,*58
1483621258.86,8222,7.19,71642.3,-20.67,-24.15,-24.97,0,*53
1483621260.07,8223,7.19,71640.8,-20.67,-24.05,-24.97,0,*53
1483621261.37,8224,7.19,71638.3,-20.65,-23.99,-24.87,0,*55
1483621262.65,8225,7.19,71650.8,-20.65,-24.21,-25.19,0,*56
1483621263.92,8226,7.19,71644.3,-20.65,-24.21,-25.19,0,*55
1483621265.2,8227,7.19,71654.8,-20.65,-24.21,-25.13,0,*5E
1483621266.45,8228,7.19,71648.0,-20.67,-24.31,-25.29,0,*5B
1483621267.69,8229,7.19,71654.3,-20.67,-24.21,-25.19,0,*58
1483621268.96,8230,7.19,71656.8,-20.65,-24.15,-24.97,0,*52
1483621270.23,8231,7.19,71654.5,-20.65,-24.15,-25.19,0,*54
1483621271.53,8232,7.19,71654.0,-20.65,-24.21,-25.29,0,*53
1483621272.81,8233,7.19,71660.8,-20.65,-24.31,-25.29,0,*53
1483621274.08,8234,7.19,71654.5,-20.65,-24.15,-25.19,0,*51
1483621275.38,8235,7.19,71650.3,-20.65,-24.21,-25.29,0,*54
1483621276.66,8236,7.19,71644.5,-20.65,-24.31,-25.29,0,*56
1483621277.94,8237,7.19,71644.8,-20.65,-24.21,-25.19,0,*55
1483621279.21,8238,7.19,71640.5,-20.65,-24.15,-25.13,0,*57
1483621280.48,8239,7.19,71646.5,-20.65,-24.35,-25.29,0,*5D
1483621281.76,8240,7.19,71638.8,-20.65,-24.21,-25.19,0,*55
1483621283.01,8241,7.19,71642.5,-20.65,-24.05,-25.13,0,*58
1483621284.29,8242,7.19,71638.8,-20.65,-24.21,-25.19,0,*57
1483621285.51,8243,7.19,71644.3,-20.67,-24.47,-25.35,0,*5A
1483621286.79,8244,7.19,71640.3,-20.65,-24.47,-25.45,0,*58
1483621288.06,8245,7.19,71640.5,-20.65,-24.31,-25.45,0,*58
1483621289.34,8246,7.19,71636.3,-20.65,-24.35,-25.45,0,*5F
1483621290.61,8247,7.19,71646.3,-20.65,-24.21,-25.19,0,*52
1483621291.83,8248,7.19,71636.8,-20.67,-24.35,-25.35,0,*54
1483621293.05,8249,7.19,71648.0,-20.67,-24.35,-25.35,0,*55
1483621294.29,8250,7.19,71640.8,-20.67,-24.61,-25.45,0,*5B
1483621295.54,8251,7.19,71650.0,-20.65,-24.31,-25.19,0,*54
1483621296.76,8252,7.19,71644.5,-20.67,-24.35,-25.35,0,*5F
1483621298.01,8253,7.19,71640.8,-20.65,-24.61,-25.61,0,*5C
1483621299.26,8254,7.19,71642.3,-20.67,-24.05,-25.29,0,*57
1483621300.52,8255,7.19,71656.3,-20.65,-24.51,-25.49,0,*53
1483621301.75,8256,7.19,71656.0,-20.67,-24.47,-25.49,0,*55
1483621302.97,8257,7.19,71660.8,-20.67,-24.61,-25.65,0,*5E
1483621304.2,8258,7.19,71664.0,-20.67,-24.35,-25.61,0,*54
1483621305.42,8259,7.19,71668.5,-20.67,-24.61,-25.65,0,*50
1483621306.65,8260,7.19,71666.8,-20.67,-24.35,-25.61,0,*5F
1483621307.89,8261,7.19,71666.0,-20.67,-24.35,-25.45,0,*58
1483621309.16,8262,7.19,71672.3,-20.65,-24.35,-25.45,0,*59
1483621310.39,8263,7.19,71664.0,-20.67,-24.51,-25.49,0,*54
1483621311.63,8264,7.19,71666.8,-20.67,-24.35,-25.45,0,*5D
1483621312.88,8265,7.19,71664.5,-20.67,-24.35,-25.29,0,*56
1483621314.16,8266,7.19,71664.8,-20.65,-24.21,-25.19,0,*51
1483621315.43,8267,7.19,71660.8,-20.65,-24.21,-25.19,0,*50
1483621316.68,8268,7.19,71662.5,-20.67,-24.35,-25.29,0,*5B
1483621317.95,8269,7.19,71666.3,-20.67,-24.21,-25.29,0,*5F
1483621319.19,8270,7.19,71666.3,-20.67,-24.15,-25.13,0,*59
1483621320.44,8271,7.19,71662.5,-20.67,-24.21,-25.19,0,*55
1483621321.71,8272,7.19,71658.5,-20.65,-24.21,-25.19,0,*54
1483621322.99,8273,7.19,71664.0,-20.65,-24.47,-25.45,0,*5C
1483621324.24,8274,7.19,71660.0,-20.65,-24.31,-25.35,0,*5D
1483621325.49,8275,7.19,71662.3,-20.65,-24.61,-25.65,0,*5C
1483621326.75,8276,7.19,71654.3,-20.65,-24.47,-25.61,0,*5F
1483621328.03,8277,7.19,71644.0,-20.65,-24.47,-25.45,0,*58
1483621329.29,8278,7.19,71630.8,-20.65,-24.47,-25.61,0,*51
1483621330.54,8279,7.19,71630.3,-20.65,-24.61,-25.61,0,*54
1483621331.79,8280,7.19,71626.0,-20.65,-24.61,-25.65,0,*56
1483621333.02,8281,7.19,71622.0,-20.67,-24.47,-25.49,0,*5F
1483621334.28,8282,7.19,71618.0,-20.65,-24.51,-25.61,0,*53
1483621335.53,8283,7.19,71620.8,-20.67,-24.67,-25.65,0,*51
1483621336.81,8284,7.19,71618.8,-20.65,-24.61,-25.75,0,*53
1483621338.08,8285,7.19,71628.8,-20.65,-24.67,-25.65,0,*55
1483621339.36,8286,7.19,71634.8,-20.65,-24.67,-25.65,0,*56
1483621340.58,8287,7.19,71632.3,-20.67,-24.61,-25.61,0,*57
1483621341.85,8288,7.19,71638.8,-20.67,-24.67,-25.81,0,*50
1483621343.06,8289,7.19,71642.0,-20.67,-24.77,-25.87,0,*56
1483621344.29,8290,7.19,71628.3,-20.67,-24.77,-25.65,0,*52
1483621345.53,8291,7.19,71642.3,-20.69,-24.77,-25.75,0,*5C
1483621346.76,8292,7.19,71622.5,-20.69,-24.61,-25.45,0,*5B
1483621347.98,8293,7.19,71642.5,-20.69,-24.35,-25.13,0,*58
1483621349.22,8294,7.19,71642.0,-20.69,-24.21,-25.19,0,*50
1483621350.48,8295,7.19,71644.5,-20.69,-24.67,-25.81,0,*52
1483621351.72,8296,7.19,71642.5,-20.71,-24.35,-25.39,0,*5C
1483621352.96,8297,7.19,71646.3,-20.69,-24.35,-25.45,0,*5F
1483621354.18,8298,7.19,71644.3,-20.69,-24.61,-25.65,0,*53
1483621355.42,8299,7.19,71648.5,-20.69,-24.61,-25.75,0,*53
1483621356.64,8300,7.19,71660.8,-20.69,-24.61,-25.65,0,*53
1483621357.86,8301,7.19,71654.8,-20.69,-24.47,-25.49,0,*58
1483621359.08,8302,7.19,71660.8,-20.69,-24.35,-25.49,0,*5E
1483621360.3,8303,7.19,71650.0,-20.69,-24.35,-25.49,0,*5F
1483621361.52,8304,7.19,71654.5,-20.69,-24.31,-25.13,0,*53
1483621362.74,8305,7.19,71640.8,-20.69,-24.31,-25.35,0,*56
1483621364.01,8306,7.19,71642.3,-20.69,-24.67,-25.75,0,*52
1483621365.3,8307,7.19,71648.8,-20.71,-24.67,-25.71,0,*5E
1483621366.56,8308,7.19,71640.8,-20.71,-24.35,-25.45,0,*51
1483621367.8,8309,7.19,71640.8,-20.69,-24.21,-25.19,0,*55
1483621369.07,8310,7.19,71640.0,-20.69,-24.21,-25.29,0,*5E
1483621370.31,8311,7.19,71654.0,-20.67,-24.21,-25.19,0,*52
1483621371.53,8312,7.19,71654.8,-20.69,-24.31,-25.35,0,*50
1483621372.78,8313,7.19,71658.0,-20.67,-24.31,-25.29,0,*52
1483621374.02,8314,7.19,71640.8,-20.67,-24.21,-25.19,0,*57
1483621375.27,8315,7.19,71654.5,-20.67,-24.31,-25.45,0,*5E
1483621376.51,8316,7.19,71650.8,-20.67,-24.15,-25.35,0,*5C
1483621377.78,8317,7.19,71646.8,-20.67,-24.21,-25.29,0,*57
1483621379.01,8318,7.19,71648.8,-20.67,-24.31,-25.49,0,*5F
1483621380.26,8319,7.19,71644.5,-20.67,-24.61,-25.75,0,*54
1483621381.51,8320,7.19,71642.8,-20.67,-24.47,-25.45,0,*59
1483621382.77,8321,7.19,71640.5,-20.65,-24.51,-25.49,0,*51
1483621384.0,8322,7.19,71652.3,-20.67,-24.51,-25.61,0,*5A
1483621385.24,8323,7.19,71642.3,-20.67,-24.67,-25.87,0,*56
1483621386.46,8324,7.13,71636.3,-20.67,-24.51,-25.65,0,*58
1483621387.72,8325,7.19,71642.8,-20.65,-24.51,-25.65,0,*5B
1483621388.94,8326,7.19,71642.5,-20.67,-24.61,-25.65,0,*59
1483621390.17,8327,7.19,71638.3,-20.67,-24.51,-25.65,0,*5B
1483621391.42,8328,7.19,71640.3,-20.67,-24.51,-25.75,0,*55
1483621392.67,8329,7.19,71640.5,-20.67,-24.61,-25.75,0,*57
1483621393.92,8330,7.19,71644.8,-20.67,-24.61,-25.75,0,*5F
1483621395.18,8331,7.19,71632.3,-20.69,-24.67,-25.81,0,*5D
1483621396.44,8332,7.19,71636.5,-20.69,-24.67,-25.75,0,*55
1483621397.69,8333,7.19,71636.5,-20.67,-24.61,-25.81,0,*57
1483621398.93,8334,7.19,71642.5,-20.67,-24.61,-25.81,0,*50
1483621400.18,8335,7.19,71640.0,-20.67,-24.61,-25.75,0,*5A
1483621401.42,8336,7.19,71646.3,-20.67,-24.67,-25.87,0,*52
1483621402.68,8337,7.19,71650.5,-20.67,-24.67,-25.81,0,*55
1483621403.91,8338,7.19,71652.5,-20.67,-24.51,-25.65,0,*55
1483621405.13,8339,7.19,71652.3,-20.67,-24.61,-25.65,0,*57
1483621406.38,8340,7.19,71646.3,-20.67,-24.61,-25.75,0,*58
1483621407.62,8341,7.19,71644.5,-20.69,-24.31,-25.29,0,*5B
1483621408.88,8342,7.19,71640.3,-20.69,-24.15,-25.29,0,*5E
1483621410.13,8343,7.19,71642.5,-20.67,-24.31,-25.29,0,*57
1483621411.36,8344,7.19,71640.3,-20.67,-24.31,-25.61,0,*5C
1483621412.61,8345,7.19,71622.8,-20.67,-24.35,-25.45,0,*5F
1483621413.87,8346,7.19,71614.3,-20.67,-24.15,-25.03,0,*5C
1483621415.09,8347,7.19,71632.8,-20.67,-24.31,-25.35,0,*5E
1483621416.32,8348,7.19,71632.5,-20.67,-24.61,-25.61,0,*55
1483621417.56,8349,7.19,71624.8,-20.67,-24.31,-25.45,0,*57
1483621418.79,8350,7.19,71622.0,-20.67,-24.51,-25.65,0,*5B
1483621420.02,8351,7.19,71616.0,-20.67,-24.35,-25.49,0,*56
1483621421.27,8352,7.19,71610.8,-20.67,-24.51,-25.75,0,*58
1483621422.54,8353,7.19,71614.8,-20.67,-24.67,-25.75,0,*5C
1483621423.76,8354,7.19,71618.8,-20.67,-24.61,-25.61,0,*58
1483621424.98,8355,7.19,71618.0,-20.69,-24.77,-25.87,0,*58
1483621426.24,8356,7.19,71622.0,-20.69,-25.03,-26.13,0,*57
1483621427.48,8357,7.19,71626.0,-20.69,-24.61,-25.81,0,*5B
1483621428.69,8358,7.19,71628.3,-20.69,-24.77,-25.87,0,*55
1483621429.94,8359,7.19,71634.8,-20.67,-24.77,-25.75,0,*57
1483621431.22,8360,7.19,71640.3,-20.71,-24.67,-25.81,0,*50
1483621432.46,8361,7.19,71638.3,-20.69,-24.83,-25.65,0,*58
1483621433.68,8362,7.19,71650.0,-20.69,-24.61,-25.61,0,*53
1483621434.92,8363,7.19,71648.8,-20.69,-24.41,-25.35,0,*51
1483621436.14,8364,7.19,71646.8,-20.69,-24.57,-25.39,0,*5D
1483621437.4,8365,7.19,71644.0,-20.71,-24.41,-25.23,0,*59
1483621438.64,8366,7.19,71650.0,-20.69,-24.21,-25.19,0,*5C
1483621439.88,8367,7.19,71646.8,-20.69,-24.35,-25.45,0,*51
1483621441.15,8368,7.19,71642.3,-20.71,-24.41,-25.65,0,*56
1483621442.39,8369,7.19,71650.3,-20.69,-24.61,-25.81,0,*56
1483621443.68,8370,7.19,71648.8,-20.71,-24.67,-25.71,0,*5E
1483621444.9,8371,7.19,71642.3,-20.69,-24.51,-25.65,0,*56
1483621446.17,8372,7.19,71632.5,-20.71,-24.57,-25.55,0,*59
1483621447.39,8373,7.19,71644.0,-20.69,-24.51,-25.65,0,*54
1483621448.66,8374,7.19,71638.3,-20.71,-24.51,-25.55,0,*59
1483621449.91,8375,7.19,71638.3,-20.71,-24.51,-25.65,0,*5B
1483621451.13,8376,7.19,71636.8,-20.69,-24.47,-25.61,0,*52
1483621452.35,8377,7.19,71630.0,-20.69,-24.61,-25.65,0,*53
1483621453.62,8378,7.19,71630.8,-20.71,-24.41,-25.65,0,*57
1483621454.88,8379,7.19,71630.0,-20.71,-24.57,-25.81,0,*5B
1483621456.12,8380,7.19,71636.5,-20.69,-24.61,-25.81,0,*51
1483621457.35,8381,7.19,71630.3,-20.69,-24.61,-25.81,0,*50
1483621458.56,8382,7.19,71632.3,-20.69,-24.61,-25.87,0,*55
1483621459.81,8383,7.19,71630.0,-20.69,-24.83,-26.03,0,*57
1483621461.03,8384,7.19,71628.0,-20.69,-24.77,-26.03,0,*5B
1483621462.26,8385,7.19,71630.8,-20.69,-24.61,-25.81,0,*54
1483621463.52,8386,7.19,71632.3,-20.69,-24.67,-25.81,0,*51
1483621464.79,8387,7.19,71636.3,-20.71,-24.71,-25.91,0,*5F
1483621466.06,8388,7.19,71634.8,-20.71,-24.71,-25.87,0,*57
1483621467.27,8389,7.19,71628.8,-20.69,-24.77,-25.87,0,*59
1483621468.53,8390,7.19,71638.3,-20.69,-24.67,-25.81,0,*56
1483621469.77,8391,7.19,71636.5,-20.69,-24.61,-25.75,0,*5A
1483621471.02,8392,7.19,71634.3,-20.71,-24.93,-26.17,0,*5A
1483621472.29,8393,7.19,71642.3,-20.71,-24.71,-25.87,0,*5D
1483621473.56,8394,7.19,71632.5,-20.71,-24.41,-25.65,0,*55
1483621474.82,8395,7.19,71628.8,-20.71,-24.67,-26.07,0,*57
1483621476.09,8396,7.19,71632.5,-20.71,-24.71,-25.87,0,*58
1483621477.36,8397,7.19,71638.3,-20.71,-24.71,-26.03,0,*56
1483621478.63,8398,7.19,71634.8,-20.71,-24.71,-25.87,0,*56
1483621479.89,8399,7.19,71642.5,-20.71,-24.67,-25.87,0,*50
1483621481.15,8400,7.19,71626.8,-20.71,-24.57,-25.81,0,*52
1483621482.41,8401,7.19,71628.8,-20.71,-24.67,-25.91,0,*51
1483621483.67,8402,7.19,71636.8,-20.71,-24.83,-26.07,0,*54
1483621484.93,8403,7.19,71640.8,-20.71,-24.67,-26.03,0,*5B
1483621486.2,8404,7.19,71650.0,-20.71,-24.83,-26.03,0,*56
1483621487.46,8405,7.19,71646.0,-20.71,-24.67,-25.87,0,*52
1483621488.69,8406,7.19,71640.0,-20.71,-24.57,-25.87,0,*52
1483621489.95,8407,7.19,71634.0,-20.71,-24.67,-25.91,0,*57
1483621491.23,8408,7.19,71626.0,-20.71,-24.67,-25.81,0,*59
1483621492.47,8409,7.19,71630.5,-20.69,-24.61,-25.81,0,*57
1483621493.69,8410,7.19,71628.3,-20.69,-24.51,-25.65,0,*56
1483621494.94,8411,7.19,71630.3,-20.71,-24.51,-25.65,0,*5E
1483621496.18,8412,7.19,71618.3,-20.71,-24.51,-25.65,0,*5D
1483621497.44,8413,7.19,71618.3,-20.71,-24.67,-25.87,0,*55
1483621498.69,8414,7.19,71620.8,-20.69,-24.41,-25.65,0,*53
1483621499.97,8415,7.19,71616.0,-20.71,-24.67,-25.81,0,*55
1483621501.21,8416,7.19,71612.3,-20.69,-24.61,-25.81,0,*59
1483621502.47,8417,7.19,71618.5,-20.71,-24.87,-26.03,0,*50
1483621503.75,8418,7.19,71622.0,-20.71,-24.71,-26.03,0,*56
1483621505.03,8419,7.19,71614.3,-20.71,-24.87,-26.17,0,*5B
1483621506.32,8420,7.19,71618.3,-20.71,-25.03,-26.33,0,*5A
1483621507.57,8421,7.19,71626.5,-20.71,-24.93,-26.33,0,*53
1483621508.82,8422,7.19,71622.0,-20.71,-24.93,-26.17,0,*56
1483621510.09,8423,7.19,71616.3,-20.71,-24.83,-26.03,0,*53
1483621511.34,8424,7.19,71622.8,-20.71,-24.87,-26.23,0,*52
1483621512.6,8425,7.19,71620.5,-20.71,-25.03,-26.49,0,*52
1483621513.88,8426,7.19,71620.0,-20.71,-24.87,-26.17,0,*57
1483621515.14,8427,7.19,71626.5,-20.71,-24.87,-26.07,0,*57
1483621516.41,8428,7.19,71630.0,-20.71,-24.71,-26.07,0,*51
1483621517.64,8429,7.19,71632.3,-20.77,-24.93,-26.29,0,*56
1483621518.89,8430,7.19,71632.0,-20.73,-24.71,-26.03,0,*5E
1483621520.11,8431,7.19,71636.8,-20.77,-24.61,-25.91,0,*52
1483621521.35,8432,7.19,71654.5,-20.73,-24.67,-25.87,0,*54
1483621522.56,8433,7.19,71646.3,-20.73,-24.57,-25.87,0,*56
1483621523.81,8434,7.19,71658.5,-20.73,-24.71,-26.03,0,*5A
1483621525.06,8435,7.19,71654.8,-20.77,-24.77,-25.97,0,*57
1483621526.27,8436,7.19,71648.3,-20.77,-24.77,-25.87,0,*55
1483621527.49,8437,7.19,71662.3,-20.77,-24.61,-25.87,0,*53
1483621528.76,8438,7.19,71654.5,-20.71,-24.51,-25.71,0,*50
1483621530.03,8439,7.19,71654.5,-20.71,-24.51,-25.81,0,*5E
1483621531.28,8440,7.19,71642.0,-20.73,-24.71,-26.07,0,*5D
1483621532.52,8441,7.19,71658.5,-20.77,-24.97,-26.29,0,*5C
1483621533.76,8442,7.19,71654.8,-20.73,-24.71,-25.87,0,*54
1483621535.03,8443,7.19,71658.3,-20.73,-24.67,-25.71,0,*5B
1483621536.3,8444,7.19,71634.0,-20.73,-24.67,-25.81,0,*53
1483621537.55,8445,7.19,71626.0,-20.73,-24.71,-25.91,0,*54
1483621538.81,8446,7.19,71622.0,-20.77,-24.87,-25.75,0,*50
1483621540.03,8447,7.19,71628.5,-20.77,-24.77,-25.91,0,*54
1483621541.28,8448,7.19,71640.3,-20.73,-24.71,-26.03,0,*51
1483621542.55,8449,7.19,71636.3,-20.73,-24.83,-26.17,0,*58
1483621543.77,8450,7.19,71646.5,-20.73,-24.77,-26.07,0,*5A
1483621545.02,8451,7.19,71638.8,-20.73,-24.71,-26.03,0,*59
1483621546.3,8452,7.19,71640.3,-20.77,-24.71,-25.97,0,*50
1483621547.51,8453,7.19,71644.5,-20.77,-24.61,-25.87,0,*51
1483621548.76,8454,7.19,71652.5,-20.73,-24.57,-25.71,0,*5E
1483621550.01,8455,7.19,71652.3,-20.73,-24.51,-25.71,0,*59
1483621551.25,8456,7.19,71654.5,-20.73,-24.67,-25.91,0,*51
1483621552.46,8457,7.19,71654.0,-20.77,-24.61,-25.87,0,*55
1483621553.68,8458,7.19,71656.3,-20.77,-24.61,-26.07,0,*51
1483621554.93,8459,7.19,71658.5,-20.77,-24.71,-25.91,0,*5D
1483621556.14,8460,7.19,71656.3,-20.73,-24.57,-25.87,0,*50
1483621557.39,8461,7.19,71650.5,-20.77,-24.47,-25.75,0,*59
1483621558.65,8462,7.19,71654.5,-20.77,-24.31,-25.71,0,*5F
1483621559.87,8463,7.19,71654.0,-20.73,-24.35,-25.65,0,*5B
1483621561.11,8464,7.19,71654.8,-20.73,-24.51,-25.81,0,*54
1483621562.34,8465,7.19,71648.5,-20.73,-24.51,-25.87,0,*53
1483621563.61,8466,7.19,71648.3,-20.73,-24.41,-25.71,0,*58
1483621564.85,8467,7.19,71646.8,-20.73,-24.67,-25.91,0,*53
1483621566.09,8468,7.19,71644.0,-20.73,-24.67,-25.87,0,*5B
1483621567.32,8469,7.19,71640.5,-20.73,-24.67,-25.87,0,*5A
1483621568.59,8470,7.19,71636.0,-20.77,-24.87,-26.13,0,*56
1483621569.8,8471,7.19,71632.3,-20.73,-24.57,-25.87,0,*50
1483621571.05,8472,7.19,71638.0,-20.73,-24.71,-26.07,0,*5C
1483621572.27,8473,7.19,71632.3,-20.77,-24.77,-26.03,0,*5B
1483621573.48,8474,7.19,71632.5,-20.73,-24.93,-26.23,0,*50
1483621574.71,8475,7.19,71632.8,-20.73,-24.67,-25.91,0,*50
1483621575.96,8476,7.19,71638.0,-20.77,-24.71,-26.07,0,*5C
1483621577.24,8477,7.19,71632.8,-20.73,-24.71,-25.81,0,*54
1483621578.52,8478,7.19,71644.8,-20.77,-24.71,-25.97,0,*58
1483621579.76,8479,7.19,71638.3,-20.73,-24.25,-25.35,0,*54
1483621581.01,8480,7.19,71640.0,-20.77,-24.57,-25.55,0,*55
1483621582.25,8481,7.19,71638.8,-20.73,-24.67,-25.87,0,*5C
1483621583.48,8482,7.19,71656.3,-20.77,-24.87,-26.23,0,*58
1483621584.75,8483,7.19,71656.5,-20.77,-24.87,-26.13,0,*5A
1483621586.02,8484,7.19,71658.0,-20.73,-24.71,-25.81,0,*58
1483621587.27,8485,7.19,71658.5,-20.77,-24.47,-25.75,0,*53
1483621588.55,8486,7.19,71660.3,-20.77,-24.41,-25.71,0,*52
1483621589.77,8487,7.19,71650.5,-20.73,-24.35,-25.65,0,*51
1483621591.02,8488,7.19,71644.0,-20.77,-24.47,-25.45,0,*5D
1483621592.24,8489,7.19,71646.3,-20.73,-24.35,-25.49,0,*51
1483621593.47,8490,7.19,71646.0,-20.73,-24.51,-25.65,0,*55
1483621594.72,8491,7.19,71640.3,-20.73,-24.41,-25.65,0,*55
1483621595.96,8492,7.19,71640.3,-20.73,-24.83,-26.23,0,*59
1483621597.2,8493,7.19,71644.5,-20.77,-24.77,-26.13,0,*54
1483621598.44,8494,7.19,71642.0,-20.77,-24.77,-26.13,0,*53
1483621599.69,8495,7.19,71634.3,-20.77,-24.57,-25.71,0,*57
1483621600.97,8496,7.19,71640.0,-20.77,-24.41,-25.55,0,*55
1483621602.24,8497,7.19,71650.8,-20.77,-24.71,-25.97,0,*59
1483621603.46,8498,7.19,71640.3,-20.73,-24.57,-25.87,0,*57
1483621604.67,8499,7.19,71640.5,-20.77,-24.57,-25.87,0,*52
1483621605.92,8500,7.19,71650.5,-20.73,-24.35,-25.81,0,*55
1483621607.16,8501,7.19,71650.0,-20.73,-24.51,-25.81,0,*56
1483621608.39,8502,7.19,71642.3,-20.77,-24.47,-25.61,0,*58
1483621609.64,8503,7.19,71646.8,-20.73,-24.21,-25.49,0,*57
1483621610.86,8504,7.19,71642.8,-20.77,-24.47,-25.87,0,*56
1483621612.11,8505,7.19,71646.0,-20.73,-24.35,-25.71,0,*5F
1483621613.36,8506,7.19,71648.5,-20.69,-24.35,-25.75,0,*53
1483621614.59,8507,7.19,71646.5,-20.71,-24.51,-25.91,0,*53
1483621615.86,8508,7.19,71650.5,-20.71,-24.57,-25.81,0,*5B
1483621617.09,8509,7.19,71644.5,-20.71,-24.57,-26.07,0,*57
1483621618.33,8510,7.19,71646.5,-20.73,-24.67,-25.91,0,*52
1483621619.6,8511,7.19,71652.5,-20.73,-24.41,-25.71,0,*59
1483621620.87,8512,7.19,71650.0,-20.73,-24.41,-25.81,0,*55
1483621622.14,8513,7.19,71652.0,-20.71,-24.25,-25.39,0,*57
1483621623.41,8514,7.19,71650.5,-20.71,-24.11,-25.39,0,*57
1483621624.65,8515,7.19,71650.0,-20.71,-24.51,-25.87,0,*57
1483621625.91,8516,7.19,71652.3,-20.71,-24.67,-25.91,0,*56
1483621627.14,8517,7.19,71646.0,-20.71,-24.35,-25.23,0,*59
1483621628.41,8518,7.19,71662.3,-20.71,-24.41,-26.03,0,*54
1483621629.71,8519,7.19,71660.8,-20.71,-24.71,-26.17,0,*53
1483621630.93,8520,7.19,71656.8,-20.73,-24.57,-26.03,0,*5A
1483621632.17,8521,7.19,71656.3,-20.71,-24.57,-26.03,0,*59
1483621633.44,8522,7.19,71654.0,-20.73,-24.71,-26.17,0,*59
1483621634.69,8523,7.19,71654.5,-20.77,-24.61,-25.97,0,*56
1483621635.9,8524,7.19,71658.5,-20.73,-24.57,-25.91,0,*56
1483621637.14,8525,7.19,71650.0,-20.73,-24.41,-25.87,0,*57
1483621638.42,8526,7.19,71642.3,-20.73,-24.71,-26.17,0,*5D
1483621639.66,8527,7.19,71646.5,-20.73,-24.83,-26.23,0,*56
1483621640.91,8528,7.19,71650.8,-20.73,-24.71,-26.07,0,*52
1483621642.17,8529,7.19,71656.3,-20.71,-24.67,-26.03,0,*52
1483621643.39,8530,7.19,71658.3,-20.73,-24.57,-26.03,0,*5B
1483621644.63,8531,7.19,71662.0,-20.73,-24.67,-26.23,0,*5B
1483621645.85,8532,7.19,71664.3,-20.77,-24.61,-26.07,0,*5C
1483621647.09,8533,7.19,71636.3,-20.73,-24.51,-25.81,0,*57
1483621648.37,8534,7.19,71646.0,-20.73,-24.41,-25.71,0,*5E
1483621649.62,8535,7.19,71644.5,-20.73,-24.25,-25.49,0,*56
1483621650.84,8536,7.19,71660.0,-20.73,-24.35,-25.91,0,*51
1483621652.06,8537,7.19,71666.5,-20.73,-24.35,-25.65,0,*5B
1483621653.31,8538,7.19,71630.0,-20.73,-24.25,-25.35,0,*50
1483621654.52,8539,7.19,71642.5,-20.73,-24.35,-25.35,0,*50
1483621655.78,8540,7.19,71616.3,-20.73,-24.41,-25.49,0,*56
1483621657.0,8541,7.19,71660.0,-20.77,-24.57,-25.61,0,*5E
1483621658.21,8542,7.19,71648.0,-20.77,-24.77,-26.45,0,*5A
1483621659.49,8543,7.19,71644.3,-20.77,-24.41,-25.75,0,*5E
1483621660.76,8544,7.19,71654.0,-20.77,-24.41,-25.55,0,*5B
1483621662.02,8545,7.19,71648.5,-20.73,-24.25,-25.49,0,*51
1483621663.27,8546,7.19,71652.5,-20.73,-24.25,-25.49,0,*52
1483621664.52,8547,7.19,71648.3,-20.73,-24.35,-25.71,0,*59
1483621665.77,8548,7.19,71652.0,-20.73,-24.47,-25.75,0,*57
1483621667.02,8549,7.19,71646.0,-20.77,-24.31,-25.71,0,*57
1483621668.28,8550,7.19,71646.5,-20.73,-24.25,-25.65,0,*5B
1483621669.52,8551,7.19,71644.5,-20.73,-24.21,-25.65,0,*5E
1483621670.8,8552,7.19,71632.5,-20.73,-24.25,-25.71,0,*5C
1483621672.05,8553,7.19,71632.8,-20.73,-24.41,-25.65,0,*5A
1483621673.33,8554,7.19,71632.8,-20.73,-24.21,-25.71,0,*5E
1483621674.56,8555,7.19,71630.5,-20.77,-24.87,-26.23,0,*53
1483621675.8,8556,7.19,71610.3,-20.73,-24.83,-26.23,0,*50
1483621677.05,8557,7.19,71614.0,-20.77,-24.71,-25.91,0,*52
1483621678.29,8558,7.19,71610.8,-20.77,-24.87,-26.45,0,*5E
1483621679.53,8559,7.19,71616.3,-20.77,-24.77,-26.29,0,*5A
1483621680.77,8560,7.19,71610.5,-20.77,-24.87,-26.39,0,*5E
1483621682.02,8561,7.19,71614.5,-20.73,-24.41,-25.91,0,*50
1483621683.27,8562,7.19,71622.8,-20.77,-24.47,-25.97,0,*57
1483621684.49,8563,7.19,71630.8,-20.73,-24.51,-26.07,0,*5F
1483621685.77,8564,7.19,71618.8,-20.77,-24.71,-26.13,0,*5B
1483621686.99,8565,7.19,71628.5,-20.73,-24.51,-26.03,0,*5D
1483621688.21,8566,7.19,71630.8,-20.77,-24.57,-26.07,0,*58
1483621689.46,8567,7.19,71624.8,-20.73,-24.41,-26.03,0,*5E
1483621690.68,8568,7.19,71622.3,-20.77,-24.47,-26.07,0,*57
1483621691.93,8569,7.19,71616.0,-20.77,-24.47,-25.97,0,*5C
1483621693.15,8570,7.19,71624.0,-20.77,-24.57,-26.07,0,*5F
1483621694.39,8571,7.19,71626.0,-20.73,-24.41,-26.07,0,*5D
1483621695.64,8572,7.19,71628.0,-20.73,-24.87,-26.39,0,*59
1483621696.85,8573,7.19,71630.3,-20.77,-24.77,-26.45,0,*58
1483621698.06,8574,7.19,71628.3,-20.77,-24.97,-26.61,0,*57
1483621699.27,8575,7.19,71636.5,-20.77,-24.77,-26.45,0,*5E
1483621700.49,8576,7.19,71636.5,-20.77,-24.77,-26.45,0,*5D
1483621701.74,8577,7.19,71630.0,-20.77,-24.71,-26.23,0,*5A
1483621702.98,8578,7.19,71638.3,-20.77,-24.61,-26.13,0,*57
1483621704.23,8579,7.19,71640.8,-20.77,-24.47,-25.97,0,*5D
1483621705.47,8580,7.19,71654.5,-20.81,-24.61,-26.13,0,*59
1483621706.72,8581,7.19,71654.8,-20.77,-24.61,-26.29,0,*58